Погода в Панфилове

Хотите узнать прогноз погоды в Панфилове? Тогда Вам сюда: Погода в Панфилове

Поиск расширенной информации на нашем сайте:

Полезная информация:

Новости сайта



02.01.2020
Опубликован Долгосрочный прогноз погоды по городам России и ближнего зарубежья на январь 2020 года.
Карты: Прогноз на январь и февраль 2020 года, Сравнение прогнозируемой аномалии приземной температуры воздуха на январь 2020 года по разным моделям.




Погода в Панфилове - сегодня

Время (UTC), дата Ветер
(°,м/с) 
Видим.   Явления Облачность Т
(°С)
Тd
(°С)
f(%) Тe
(°С)
Pmin
(гПа)
dP
(гПа)
Po
(мм)
O2
(г/м3)
Тmin Tmax R s Состояние
почвы
12 22.10.21 270 (З) 4000 м  слаб. ливневой дождь  10/6 600 м кучево-дожд., средняя 
[Cb cap|Ac As]
+2.6 +1.6 93 +3  1033.6  2.7  717  286           
15 22.10.21 190 (Ю) н/о  ливневой дождь  10/10 300 м кучево-дожд. 
[Cb cap]
+2 +1 93 +1  1036.4  2.3  718  287    +4  11     
18 22.10.21 тихо ()   н/о  {ливн. осадки}  10/6 600 м кучево-дожд., средняя 
[Cb cap|Ac As]
+1.8 +0.5 91 +2  1037.7  1.2  719  288    +4  11     
21 22.10.21 тихо ()   н/о    10/3 600 м кучево-дожд., средняя 
[Cb cap|Ac As]
+1.7 +0.4 91 +2  1039  1.2  720  288           
00 23.10.21 тихо () {08}  н/о    10/0 средняя 
[Ac As]
+1.8 +0.5 91 +2  1040.1  721  288           
03 23.10.21 тихо ()   20000 м    6/3 600 м кучево-дожд., средняя 
[Cb cap|Ac trans]
+2.6 +0.8 88 +3  1041.2  1.3  722  288           
06 23.10.21 120 (ЮВ) 20000 м    8/8 600 м кучево-дожд. 
[Cb cap]
+7.2 +0.8 64 +7  1039.6  -0.3  722  283  +1.7    0.9     
09 23.10.21 210 (ЮЗ) 20000 м    8/6 600 м кучево-дожд., средняя 
[Cb cap|Ac cuf]
+8.2 -0.9 53 +9  1037.1  -2  720  282           
12 23.10.21 тихо ()   20000 м    9/3 600 м кучево-дожд., средняя, верхняя 
[Cb cap|Ac lent|Cs]
+6.5 +0.8 67 +7  1038.1  0.4  720  283           
15 23.10.21 тихо ()   н/о    ясно 
+2.6 -0.9 78 +3  1040.1  0.8  721  288    +8.9       
18 23.10.21 тихо ()   н/о    ясно 
+1.6 -2.1 76 +2  1039.6  -0.7  720  289    +8.9       
21 23.10.21 350 (С) н/о    ясно 
+0.8 -2.7 77 +1  1038.8  -0.9  720  289           
00 24.10.21 тихо () {06}  н/о    ясно 
+0.1 -3.2 78 1038.2  -0.9  719  290           
03 24.10.21 140 (ЮВ) 20000 м    ясно 
+5.2 -2.4 58 +6  1036.4  -0.2  719  284           
06 24.10.21 150 (ЮВ) 20000 м    ясно 
+11 -1.8 41 +12  1032.4  -2.1  717  278  -1         
09 24.10.21 120 (ЮВ) 20000 м    ясно 
+13.4 -5.3 27 +14  1028.4  -3.2  715  275           
12 24.10.21 тихо ()   20000 м    ясно 
+9.6 +1.4 57 +10  1027.9  -1.4  714  278           
15 24.10.21 тихо ()   н/о    ясно 
+5.8 +1.4 73 +6  1028  -0.9  713  281    +14.3       
18 24.10.21 тихо ()   н/о    ясно 
+3.8 +0.2 77 +4  1026.5  -1.9  712  283    +14.3       
21 24.10.21 тихо ()   н/о    ясно 
+3.2 +0.1 80 +3  1024.1  -2.4  710  283           
00 25.10.21 тихо () {07}  н/о    ясно 
+1.8 -1.5 79 +2  1022.7  -1.7  709  284    -10.1       
03 25.10.21 070 (В) 20000 м    ясно 
+9.3 -2.9 42 +10  1019.8  -0.7  708  276  +1.1        влажная 
06 25.10.21 120 (ЮВ) 20000 м    ясно 
+14.6 -0.5 35 +16  1016.3  -1.9  707  270  +1.1         
09 25.10.21 200 (Ю) 20000 м    ясно 
+18.3 -1 27 +19  1013.2  -2  705  266           
12 25.10.21 тихо ()   20000 м    ясно 
+12.8 +2.1 48 +13  1015.1  0.5  706  271           
Время (UTC), дата Ветер
(°,м/с) 
Видим.   Явления Облачность Т
(°С)
Тd
(°С)
f(%) Тe
(°С)
Pmin
(гПа)
dP
(гПа)
Po
(мм)
O2
(г/м3)
Тmin Tmax R s Состояние
почвы

Для получения пояснительной информации подведите курсор к названию столбца.

ПОГОДА в Панфилове - архив

Всё, что Вы хотите узнать о погоде в Панфилове - удобно и подробно!

Выберите нужную дату (начиная с 1 января 2019* года) и нажмите кнопку "Найти".
Будут отображены архивные сводки погоды по пункту Панфилов, начиная с указанной даты.


Отображать данные в формате CSV (для использования в таблицах Excel)


Внимание! Наш архив погоды предназначен исключительно для личного некоммерческого использования в познавательных целях. Если Вам необходимы официальные справки о состоянии погоды (для производственных, юридических, коммерческих и т.п. целей), обращайтесь в органы Росгидромета.

*Примечание: данная дата относится к архиву по метеостанциям СССР (Россия, СНГ, Балтия).
Архив по метеостанциям Зарубежной Европы и Азии (кроме Китая) хранится 10 дней, по другим регионам земного шара (Китай, Африка, Америка, Австралия, Океания) - 1 день.

Панфилов - район местоположения метеостанции


Название, широта, долгота, высота метеостанции:
Панфилов 44.2°ш. 80.1°д. 645 м над ур. моря [Казахстан]

Дополнительная информация

В oтличие oт бoльшинства пoгoдных сайтoв мы публикуем пoдрoбную метеoинфoрмацию в детальнoм прoфессиoнальнoм фoрмате.

Характеристики температуры и влажнoсти вoздуха измеряются на высoте 2 м в тени вдали oт зданий и деревьев.
Скoрoсть ветра измеряется на высoте 10 м (на урoвне рoста челoвека скoрoсть ветра ниже в 1.5-2 раза). Если метеoстанция нахoдится в гoрoде или в лесу, тo скoрoсть ветра занижена на 2-4 м/с пo сравнению с oткрытым местoм. Скoрoсть ветра над акватoриями крупных рек и oзёр, а также на вершинах хoлмoв на 2-5 м/с выше, чем в oбычных услoвиях.
Атмoсфернoе давление в разных тoчках местнoсти мoжет значительнo oтличаться oт давления на метеoстанции, в зависимoсти oт услoвий рельефа (при пoдъёме на 10 м давление пoнижается примернo на 1 мм рт.ст.).